Location: *
(46.3500°N, 10.9000°E)
Time: 02:09:03
(UTC+00:00)

STARLINK-1237 - Pass Details

Date: 09 April 2020
Orbit: 549 x 550 km, 53.0° (Epoch: 03 June)

Event Time Altitude Azimuth Distance (km) Brightness Sun altitude
Rises 18:42:58 0° 296° (WNW) 2,728 9.6 -8.5°
Reaches altitude 10° 18:45:19 10° 304° (NW) 1,833 7.8 -8.9°
Maximum altitude 18:49:16 41° 16° (NNE) 813 4.5 -9.5°
Enters shadow 18:53:00 11° 86° (E) 1,753 5.6 -10.1°
